Regional Weather Roundup
Issued by NWS Burlington, VT

Home | Current Version | Previous Version | Text Only | Print | Product List | Glossary On
Versions: 1 2 3 4 5 6 7 8 9 10 11 12 13 14 15 16 17 18 19 20 21 22 23 24 25 26 27 28 29 30 31 32 33 34 35 36 37 38 39 40 41 42 43 44 45 46 47 48 49 50
000
ASUS41 KBTV 300930
RWRBTV
VERMONT REGIONAL WEATHER ROUNDUP
NATIONAL WEATHER SERVICE BURLINGTON VT
500 AM EDT MON MAY 30 2016

NOTE: "FAIR" INDICATES FEW OR NO CLOUDS BELOW 12,000 FEET WITH NO
SIGNIFICANT WEATHER AND/OR OBSTRUCTIONS TO VISIBILITY.

* THESE REPORTS ARE NOT UNDER NWS QUALITY CONTROL AND/OR DO NOT
  REPORT WEATHER SUCH AS PRECIPITATION AND FOG.

VTZ001>019-301000-
_____VERMONT_____


CITY           SKY/WX    TMP DP  RH WIND       PRES   REMARKS
BURLINGTON     CLOUDY    69  64  84 S10       29.91F
MONTPELIER     LGT RAIN  59  58  96 CALM      30.02F
MORRISVILLE    CLOUDY    62  60  93 E3        29.98S
ST. JOHNSBURY*   N/A     61  56  83 MISG      29.98F
LYNDONVILLE*   CLOUDY    58  57  96 CALM      30.02S FOG
RUTLAND*       CLOUDY    61  59  93 E10       29.99F
SPRINGFIELD    LGT RAIN  59  56  89 S5        30.02F
HIGHGATE*      DRIZZLE   68  65  89 S5        29.90S
NEWPORT*       CLOUDY    60  59  97 SE7       29.97S
BENNINGTON     CLOUDY    66  64  93 CALM      29.99F
SUTTON*          N/A     57 N/A N/A MISG        N/A
MT. MANSFIELD*   N/A     57 N/A N/A NW20        N/A

_____LAKE CHAMPLAIN_____


CITY           SKY/WX    TMP DP  RH WIND       PRES   REMARKS
BURTON ISLAND*   N/A     68  64  88 SE14        N/A
COLCHESTER RF*   N/A     66  64  94 S18         N/A
DIAMOND ISL*     N/A     68  66  94 S3          N/A

$$

NYZ007-026>031-035-052-083-087-301000-
_____NORTHERN NEW YORK_____


CITY           SKY/WX    TMP DP  RH WIND       PRES   REMARKS
PLATTSBURGH    LGT RAIN  66  65  96 CALM      29.90F
SARANAC LAKE   CLOUDY    62  60  93 CALM      29.94F
MASSENA        MOCLDY    70  61  73 S5        29.88S
OGDENSBURG*    CLEAR     66  63  88 CALM      29.88S
WATERTOWN      MOCLDY    64  61  90 CALM      29.90S
ALBANY         CLOUDY    69  66  90 S10       29.97F
GLENS FALLS    CLOUDY    68  65  90 S3        29.97S

$$
NHZ002-005-011-301000-
_____NEW HAMPSHIRE_____


CITY           SKY/WX    TMP DP  RH WIND       PRES   REMARKS
LEBANON        LGT RAIN  59  56  89 NE3       30.00F
MT WASHINGTON  LGT RAIN  50  50 100 W39G46      N/A  VSB 0
PLYMOUTH       LGT RAIN  55  54  96 NE3       30.04S
WHITEFIELD     LGT RAIN  58  55  90 NE6       30.00F FOG

$$

_____REGIONAL QUEBEC LOCATIONS_____


CITY           SKY/WX    TMP DP  RH WIND       PRES   REMARKS
MONTREAL       CLOUDY    68  66  94 S10       29.86S
QUEBEC CITY    SHOWER    57  57 100 NW3       29.87S
SHERBROOKE     LGT RAIN  63  61  94 SE5       29.92F

_____REGIONAL ONTARIO LOCATIONS_____


CITY           SKY/WX    TMP DP  RH WIND       PRES   REMARKS
OTTAWA         PTCLDY    66  61  82 VRB2      29.86R

______KEY______
VSB  - VISIBILITY IN MILES
WCI  - WIND CHILL INDEX
HX   - HEAT INDEX
$$
NNNN




USA.gov is the U.S. government's official web portal to all federal, state and local government web resources and services.